Location: Peralejo
(40.5415°N, 4.1259°W)
Time: 14:20:48
(UTC+00:00)

BlueWalker 3 - Visible Passes

Search period start: 20 January 2026 00:00
Search period end: 30 January 2026 00:00
Orbit: 451 x 463 km, 53.2° (Epoch: 20 January)

Date Brightness Start Highest point End Pass type
(mag) Time Alt. Az. Time Alt. Az. Time Alt. Az.
20 Jan 3.7 17:54:57 10° SSE 17:57:10 16° SE 17:59:24 10° E visible
20 Jan 3.0 19:30:48 10° WSW 19:33:22 41° W 19:33:22 41° W visible
21 Jan 1.7 18:55:22 10° SW 18:58:55 77° NW 18:59:44 49° NE visible
22 Jan 1.7 18:19:58 10° SW 18:23:30 80° SE 18:26:02 18° NE visible
22 Jan 4.6 19:58:42 10° WNW 19:59:47 15° WNW 19:59:47 15° WNW visible
23 Jan 3.6 19:22:57 10° W 19:25:50 22° NNW 19:25:59 22° NNW visible
24 Jan 3.4 18:47:14 10° W 18:50:19 27° NNW 18:52:07 18° NNE visible
25 Jan 3.1 18:11:32 10° W 18:14:47 32° NNW 18:18:02 10° NE visible
25 Jan 4.7 19:51:38 10° NW 19:51:55 11° NNW 19:51:55 11° NNW visible
26 Jan 4.2 19:15:43 10° NW 19:17:32 13° NNW 19:17:55 13° N visible
27 Jan 4.1 18:39:49 10° NW 18:41:53 14° NNW 18:43:53 10° NNE visible
28 Jan 4.0 18:03:54 10° WNW 18:06:14 16° NNW 18:08:34 10° NNE visible
29 Jan 4.3 19:08:19 10° NNW 19:09:14 11° N 19:09:28 11° N visible
